Temperature
16 16 16 16 16 16 16 16 16 16 16 16 16 16 16 16 16 16 16 16 16 16 16 16 16 16 16 16 16 16 16 16 15 15 15 15 15 15 15 15 14 15 15
16 16 16 16 16 16 16 16 16 16 16 16 16 16 16 16 16 16 16 16 16 16 15 15 15 15 16 16 16 16 16 16 16 15 15 15 15 15 15 15 15 15 15
16 16 16 16 16 16 16 16 16 16 16 16 16 16 16 16 16 16 16 16 15 15 15 15 15 15 15 16 16 16 16 16 16 15 15 14 15 15 15 15 15 15 15
16 16 15 16 16 16 15 16 16 16 16 16 16 16 16 16 16 16 16 16 15 15 15 15 15 15 15 15 15 16 16 16 15 15 14 14 14 15 15 15 15 15 15
16 15 15 15 15 15 15 15 16 16 16 16 16 16 16 16 16 16 16 16 15 15 15 15 15 15 15 15 15 15 15 15 15 14 14 14 14 14 14 14 14 14 14
15 15 15 15 15 15 15 15 15 15 16 15 15 15 15 15 15 15 15 15 15 15 15 15 15 15 15 15 15 15 15 15 14 14 14 14 14 14 14 14 14 14 14
15 15 15 15 15 15 15 15 15 15 15 15 15 15 15 15 15 15 15 15 15 15 15 15 15 15 15 15 15 15 15 15 14 14 14 14 14 14 14 14 14 14 14
15 15 15 15 15 15 15 15 15 15 15 15 15 15 15 15 15 15 15 15 15 15 15 15 15 15 15 15 15 15 15 15 14 14 14 14 14 14 14 14 14 14 14
14 14 14 14 15 15 15 15 15 15 15 15 15 15 15 15 15 15 15 15 15 15 15 15 15 15 15 15 15 15 15 14 14 13 13 14 14 14 14 14 14 14 14
14 14 14 14 14 14 14 14 15 15 15 15 15 15 15 15 15 14 14 14 15 15 15 15 15 15 14 14 14 14 14 14 13 13 13 13 14 14 14 14 14 14 14
14 14 14 14 14 14 14 14 14 15 15 15 15 15 15 14 14 14 14 14 14 14 14 14 14 14 14 14 14 14 14 13 13 13 13 13 13 14 14 14 13 14 13
14 14 14 14 14 14 14 14 14 14 14 14 14 14 14 14 14 14 14 14 14 14 14 14 14 14 14 14 14 14 13 13 13 13 13 13 13 13 13 13 13 13 13
14 14 14 13 13 13 14 13 14 14 14 14 14 14 14 14 14 14 14 14 14 14 13 14 14 14 13 13 13 13 13 13 13 13 13 13 13 13 13 13 13 13 13
13 13 13 13 13 13 13 13 13 13 14 14 14 14 14 14 14 14 14 14 14 13 13 13 13 13 13 13 13 13 13 13 13 13 13 13 13 13 13 13 13 13 13
13 13 13 13 13 13 13 13 13 13 13 13 14 14 13 13 13 13 13 13 13 13 13 13 13 13 13 13 13 12 12 12 12 12 12 13 13 13 13 13 13 13 13
13 13 13 13 13 13 13 13 13 13 13 13 13 13 13 13 13 13 13 13 13 13 13 13 13 13 13 13 12 12 12 12 12 12 12 12 12 12 12 12 12 12 12
13 13 13 13 13 13 13 13 13 13 13 13 13 13 13 13 13 13 13 13 13 13 13 13 12 12 12 12 12 12 12 12 12 12 12 12 12 12 12 12 12 12 12
12 12 13 13 13 13 13 12 12 12 12 12 12 12 12 12 12 12 12 12 13 13 12 12 12 12 12 12 12 12 12 12 12 12 12 12 12 12 12 12 12 12 12
12 12 12 12 12 12 12 12 12 12 12 12 12 12 12 12 12 12 12 12 12 12 12 12 12 12 11 12 12 11 11 11 11 12 12 12 12 12 11 12 12 12 12
12 12 12 12 12 12 11 11 11 11 11 11 12 11 11 12 12 12 12 12 12 12 12 12 11 11 11 11 11 11 11 11 11 11 11 11 11 11 11 11 11 12 12
11 11 11 11 11 11 11 11 11 11 11 11 11 11 11 11 11 11 11 11 11 11 11 11 11 11 11 11 11 10 10 11 11 11 11 11 11 11 11 11 11 11 11
11 11 11 11 11 11 11 11 11 11 11 11 11 11 11 11 11 11 11 11 11 11 11 11 11 11 11 11 10 10 9 10 10 10 11 11 11 11 11 11 11 11 11
11 11 11 11 11 11 10 10 10 10 10 10 10 10 10 10 10 10 10 10 10 10 10 11 11 10 10 10 10 10 10 10 9 10 10 10 10 10 11 11 11 11 10
10 10 11 10 10 10 10 10 10 10 10 10 10 10 10 10 10 10 10 10 10 10 10 10 10 10 10 10 10 10 10 10 10 9 9 10 10 10 10 10 10 10 10
10 10 10 10 10 10 10 10 10 10 9 9 9 9 9 9 10 9 9 9 10 10 10 10 10 10 10 10 10 10 10 10 10 10 9 9 9 10 10 10 10 10 10
9 9 9 10 10 10 10 9 9 9 9 9 9 9 9 9 9 9 9 9 9 9 9 9 10 10 9 9 9 10 10 10 10 10 9 9 9 9 9 9 9 9 9
Wind_Speed
8 11 12 11 11 11 12 11 11 11 12 13 14 14 13 13 13 12 12 12 12 12 13 13 13 13 13 13 14 14 14 14 14 14 14 13 13 14 13 11 11 13 14
10 12 13 12 11 11 12 11 11 11 11 13 13 13 13 13 12 12 12 12 12 12 12 12 12 13 13 13 13 13 13 13 13 12 12 13 12 12 12 11 11 12 13
11 12 13 12 11 11 11 11 10 10 11 12 13 13 12 12 12 12 12 12 12 12 12 12 12 12 13 13 13 12 12 12 11 9 7 10 12 11 11 11 12 12 13
11 11 12 12 11 11 11 10 10 10 10 10 12 12 12 12 11 11 12 12 12 12 12 12 12 12 12 12 12 12 11 11 9 5 7 9 10 11 11 11 11 12 12
10 10 12 12 11 11 11 10 9 9 9 9 10 11 11 11 11 11 11 12 11 11 12 12 13 12 12 12 11 11 11 10 6 5 8 8 9 10 10 10 11 11 12
10 10 12 12 11 11 10 9 9 9 9 9 9 10 10 10 11 11 11 11 11 11 12 12 12 12 11 11 11 11 10 8 6 7 7 7 8 9 9 9 10 10 11
10 9 11 11 10 10 10 9 9 8 8 8 8 9 9 10 10 11 11 11 11 11 11 11 11 11 11 10 10 10 9 5 5 7 6 6 8 8 8 8 9 10 11
9 9 10 10 10 10 9 9 8 8 8 8 8 8 8 9 9 10 11 11 11 11 11 11 11 11 10 10 10 10 8 5 5 6 6 7 7 7 7 8 9 10 10
8 8 8 10 10 9 9 9 8 8 7 7 7 7 7 8 8 9 10 10 11 11 11 11 11 10 10 10 10 10 7 3 4 5 5 6 6 6 7 8 8 9 9
7 7 7 8 8 9 9 8 8 7 7 7 6 7 7 8 8 9 10 10 10 11 11 11 11 10 10 10 10 9 8 5 4 5 4 6 6 6 7 7 7 8 8
7 7 7 7 7 7 8 8 8 7 7 7 7 8 7 8 8 9 9 10 10 10 11 12 12 11 10 10 9 9 7 4 4 4 4 5 5 5 6 6 6 7 8
9 8 7 7 7 7 7 7 7 7 7 7 7 8 7 6 6 7 9 10 10 10 11 11 12 11 9 8 8 8 5 5 4 3 4 5 5 5 6 6 5 6 7
9 8 7 7 7 7 6 6 6 6 6 7 7 7 6 6 6 6 7 9 9 10 9 10 10 9 7 6 7 6 5 4 3 3 4 5 4 4 5 5 4 5 5
8 8 7 6 7 7 7 6 6 6 6 6 7 7 7 5 5 5 5 7 7 7 8 8 7 8 8 7 7 6 5 4 3 3 4 4 4 3 3 4 4 4 4
9 8 8 7 7 7 6 6 6 6 6 7 7 7 7 5 5 5 5 5 6 6 7 7 7 8 7 7 6 6 5 5 4 4 4 5 3 3 3 3 3 3 4
9 8 8 8 8 8 7 6 6 6 6 7 7 7 8 7 6 5 5 5 5 6 6 6 7 7 6 5 5 5 4 4 4 4 3 4 4 3 2 2 3 3 4
9 8 8 8 8 8 8 7 6 6 6 6 6 8 8 7 7 6 5 5 5 6 6 6 6 6 5 5 5 4 3 4 4 4 3 3 3 3 2 2 3 3 3
8 8 8 7 8 8 7 6 5 6 6 6 6 7 8 8 8 7 5 5 6 6 6 5 5 5 5 5 4 4 3 3 3 3 3 3 3 2 3 2 3 3 3
9 8 8 8 8 8 7 6 5 5 5 5 5 5 7 8 8 7 5 5 7 6 5 5 5 5 5 5 4 4 3 3 3 3 3 3 3 3 2 3 3 3 2
8 8 8 8 8 7 6 5 4 4 4 4 4 5 6 7 8 7 6 6 7 6 5 6 6 5 5 5 4 3 2 3 2 3 3 3 2 3 3 3 3 3 3
8 8 9 8 8 7 6 6 5 5 5 4 4 5 6 6 7 7 6 6 6 6 6 7 6 6 5 5 4 3 2 2 2 2 2 2 2 3 3 3 2 2 3
9 9 9 9 9 9 7 6 5 5 4 5 4 5 6 6 7 7 7 6 6 6 7 7 7 5 5 5 5 4 3 3 2 2 3 3 3 3 3 3 2 2 2
9 10 9 10 9 9 8 6 5 4 3 4 5 5 5 6 7 6 7 6 6 6 6 7 7 7 6 6 5 4 4 5 4 3 3 3 3 3 2 2 2 2 2
8 8 9 9 9 9 9 8 9 7 6 7 6 5 5 6 7 7 6 6 6 5 6 7 7 6 8 7 5 4 3 2 3 3 3 3 3 3 3 3 2 2 2
6 7 8 8 9 9 10 10 10 8 7 6 6 6 6 5 6 6 7 6 6 5 6 6 6 6 6 7 6 4 3 2 3 3 3 4 3 3 3 3 2 2 2
4 5 6 8 8 9 10 10 11 10 9 8 7 7 6 5 5 6 6 6 6 5 6 6 5 6 6 6 5 5 5 4 4 4 4 5 4 3 3 2 2 2 2
Wind_Direction
157 154 150 149 147 146 143 138 137 138 140 140 139 138 137 137 135 132 129 127 125 122 119 116 112 108 106 103 100 97 93 90 88 88 87 88 88 88 86 86 89 86 82
152 152 148 148 146 147 145 141 138 138 141 143 143 141 140 140 139 136 134 131 128 125 122 119 115 111 107 105 103 100 97 94 92 91 96 94 89 88 86 76 71 85 85
148 149 151 146 142 140 140 141 141 142 142 145 146 145 144 143 140 139 137 133 128 125 124 123 119 115 112 109 107 104 101 98 97 100 116 102 96 91 90 86 85 89 85
147 148 150 142 140 136 134 136 140 144 144 145 148 149 149 148 145 143 141 135 129 127 125 123 121 119 117 114 112 109 106 103 102 119 104 98 98 94 92 91 89 90 87
147 148 142 142 142 137 134 134 139 141 143 147 149 151 153 153 150 147 144 138 133 129 127 125 124 121 120 118 116 114 110 108 113 109 95 96 96 96 94 91 89 88 88
150 148 143 143 143 141 138 137 138 143 144 146 149 152 156 156 152 148 144 141 137 134 131 129 127 125 123 122 120 118 116 122 137 101 97 97 97 100 97 94 95 91 89
153 150 147 147 145 144 144 144 143 146 148 149 150 151 154 154 150 149 147 146 145 143 139 136 134 132 130 127 124 122 121 125 114 106 99 91 91 100 101 99 98 96 92
155 153 152 150 150 149 146 144 145 148 149 151 154 152 151 154 152 150 149 151 151 150 147 143 142 138 133 131 129 126 125 138 120 111 104 95 84 99 102 102 99 96 93
155 157 159 162 159 155 149 144 145 149 149 148 153 155 153 153 156 153 153 153 156 156 152 148 144 142 139 136 134 131 129 142 129 115 109 100 92 100 106 102 101 99 96
161 166 166 167 166 166 161 149 150 153 152 147 144 144 150 155 156 158 159 157 159 160 157 152 148 145 141 138 136 137 143 166 133 128 118 106 100 105 107 106 106 106 102
171 175 173 172 171 171 170 161 161 158 154 157 154 146 158 171 170 169 162 156 160 160 158 154 149 146 144 141 140 146 161 159 139 125 113 102 110 114 109 107 109 111 108
181 181 181 181 176 174 172 170 174 176 175 181 175 170 174 173 171 167 153 153 157 157 157 154 153 154 162 156 153 164 169 159 144 129 109 104 114 120 116 107 107 111 110
187 182 185 187 180 178 176 177 178 181 182 185 180 178 176 174 167 168 163 162 162 165 166 162 168 171 171 164 167 174 167 160 149 137 121 115 116 117 120 112 112 117 117
191 189 188 189 187 186 184 182 183 184 185 184 182 182 181 177 175 173 173 172 173 175 172 174 176 174 174 170 172 172 169 169 158 145 121 118 127 125 123 125 122 130 129
194 194 194 193 192 189 186 186 186 189 190 185 182 186 188 183 181 178 177 176 178 176 178 178 176 175 177 174 176 179 176 176 169 156 133 121 133 138 129 134 142 142 143
199 197 196 196 195 190 188 188 188 187 187 189 186 189 192 190 186 183 183 181 180 181 182 182 178 177 178 176 176 179 179 176 175 170 156 136 130 135 151 159 158 143 143
203 198 197 196 195 192 193 191 189 187 188 191 191 193 193 193 190 187 187 185 181 181 180 179 176 177 174 174 176 177 176 180 177 173 167 157 143 131 131 149 141 125 132
202 200 198 195 194 192 190 189 188 188 190 193 192 194 194 194 193 191 190 188 181 178 178 179 179 177 177 178 179 177 175 175 180 173 167 165 163 159 140 140 146 137 138
203 199 197 197 196 191 186 180 182 185 190 195 193 196 196 195 195 194 195 188 181 178 179 179 183 181 179 176 175 174 175 176 178 173 176 173 180 190 185 149 138 132 132
205 201 198 196 197 192 185 180 180 187 192 197 195 199 196 196 196 196 193 190 185 181 181 181 180 181 181 172 162 159 168 177 176 184 193 184 182 190 195 181 167 138 121
203 200 196 193 192 186 184 186 188 195 195 198 198 197 198 197 196 197 191 190 191 189 185 183 178 177 176 167 157 152 144 162 185 193 194 190 184 184 183 185 187 171 148
199 199 197 195 190 187 187 186 190 191 198 199 192 194 197 196 196 199 193 191 190 189 186 185 179 178 181 184 181 176 185 190 198 211 202 200 199 179 180 187 181 169 157
197 197 196 195 192 190 186 179 169 171 184 194 196 199 201 198 196 198 197 193 191 191 191 189 186 186 187 193 201 201 197 203 180 181 202 204 200 193 185 180 176 173 172
198 194 194 193 191 189 185 184 182 184 191 202 201 199 196 194 195 195 195 193 191 191 192 192 192 196 195 195 202 223 242 198 184 172 179 198 203 204 198 187 179 174 174
196 192 193 191 190 189 188 190 192 197 198 193 191 193 195 193 191 189 190 190 193 194 193 190 188 195 201 203 200 195 194 201 214 195 189 183 191 210 215 208 192 193 188
186 187 189 189 191 190 192 193 195 195 192 185 187 191 194 191 188 187 189 190 193 194 193 191 190 194 198 203 204 204 198 198 203 204 205 194 194 197 203 210 210 204 198
Height
1520 1522 1524 1527 1529 1530 1532 1534 1536 1537 1539 1540 1541 1542 1543 1544 1545 1545 1546 1547 1547 1548 1548 1549 1549 1550 1550 1551 1551 1551 1551 1551 1551 1552 1552 1552 1552 1552 1552 1552 1552 1552 1551
1519 1522 1524 1526 1529 1531 1532 1534 1536 1537 1539 1540 1541 1542 1543 1544 1545 1546 1547 1548 1548 1549 1549 1550 1550 1551 1552 1552 1552 1552 1553 1553 1553 1554 1554 1554 1554 1554 1554 1554 1554 1554 1553
1519 1521 1524 1526 1529 1531 1532 1534 1536 1537 1539 1540 1541 1542 1544 1545 1546 1546 1547 1548 1549 1550 1550 1551 1551 1552 1552 1553 1553 1554 1554 1554 1555 1555 1556 1557 1556 1556 1556 1556 1556 1555 1555
1519 1521 1524 1526 1528 1530 1532 1534 1535 1537 1539 1540 1541 1543 1544 1545 1546 1547 1548 1549 1549 1550 1551 1551 1552 1553 1553 1554 1555 1555 1555 1556 1556 1557 1558 1559 1558 1558 1558 1558 1557 1557 1557
1519 1521 1523 1526 1528 1530 1532 1534 1535 1537 1538 1540 1541 1543 1544 1545 1546 1547 1548 1549 1550 1551 1551 1552 1553 1554 1554 1555 1556 1556 1557 1557 1558 1559 1559 1560 1560 1559 1559 1559 1559 1559 1559
1518 1521 1523 1526 1528 1530 1532 1533 1535 1537 1538 1540 1541 1542 1544 1545 1546 1547 1548 1549 1550 1551 1552 1553 1554 1554 1555 1556 1557 1557 1558 1559 1560 1560 1561 1561 1561 1560 1560 1560 1560 1560 1560
1518 1520 1523 1525 1527 1529 1531 1533 1534 1536 1537 1539 1540 1542 1543 1545 1546 1547 1548 1549 1550 1551 1552 1553 1554 1555 1556 1557 1557 1558 1559 1559 1561 1561 1562 1562 1562 1561 1562 1562 1562 1562 1561
1518 1520 1522 1524 1526 1529 1530 1532 1533 1535 1537 1538 1540 1541 1543 1544 1546 1547 1548 1549 1550 1551 1552 1553 1555 1555 1556 1557 1558 1559 1560 1560 1561 1562 1562 1563 1562 1562 1563 1563 1563 1563 1562
1517 1519 1521 1523 1525 1527 1529 1531 1532 1534 1535 1537 1539 1540 1542 1544 1545 1546 1548 1549 1550 1551 1552 1554 1555 1556 1557 1557 1558 1559 1560 1561 1563 1563 1563 1563 1563 1563 1564 1564 1564 1563 1563
1516 1518 1520 1522 1524 1526 1528 1529 1531 1533 1534 1536 1538 1539 1541 1543 1544 1546 1547 1548 1550 1551 1552 1553 1554 1556 1557 1558 1559 1560 1561 1561 1563 1563 1564 1564 1564 1564 1564 1564 1564 1564 1564
1515 1517 1519 1521 1522 1524 1526 1527 1529 1531 1533 1535 1536 1538 1540 1541 1543 1544 1546 1547 1549 1550 1552 1553 1554 1555 1556 1557 1559 1560 1561 1562 1563 1564 1564 1564 1564 1564 1565 1565 1565 1565 1565
1512 1515 1516 1519 1520 1522 1524 1526 1527 1529 1531 1533 1534 1536 1538 1540 1541 1543 1545 1546 1548 1550 1551 1552 1554 1555 1556 1557 1558 1559 1561 1562 1563 1563 1564 1564 1564 1565 1565 1565 1565 1565 1565
1511 1513 1514 1517 1518 1520 1522 1524 1526 1527 1529 1531 1532 1534 1536 1538 1540 1541 1543 1545 1547 1548 1550 1551 1553 1554 1555 1557 1558 1559 1560 1561 1562 1563 1563 1564 1564 1565 1565 1565 1565 1565 1565
1509 1511 1513 1515 1516 1518 1520 1522 1524 1525 1527 1528 1530 1532 1534 1536 1538 1539 1541 1543 1545 1546 1548 1550 1551 1553 1554 1556 1557 1559 1560 1561 1562 1562 1563 1563 1564 1565 1565 1565 1565 1565 1565
1506 1508 1510 1512 1514 1516 1518 1520 1522 1523 1525 1526 1528 1530 1532 1534 1536 1537 1539 1541 1543 1545 1547 1548 1550 1551 1553 1555 1556 1558 1559 1560 1561 1562 1562 1563 1563 1564 1565 1565 1565 1565 1565
1503 1505 1508 1510 1512 1514 1516 1518 1519 1521 1522 1524 1526 1527 1529 1531 1533 1535 1537 1539 1541 1543 1545 1547 1548 1550 1552 1553 1555 1556 1558 1559 1560 1561 1562 1562 1562 1563 1564 1564 1564 1565 1565
1500 1502 1504 1507 1509 1511 1513 1515 1517 1518 1520 1522 1523 1525 1527 1529 1531 1533 1535 1537 1539 1541 1542 1545 1547 1548 1550 1552 1553 1555 1556 1558 1559 1560 1560 1561 1562 1562 1563 1563 1564 1564 1564
1497 1499 1501 1503 1506 1508 1510 1512 1514 1516 1517 1519 1520 1522 1524 1526 1528 1530 1532 1534 1536 1538 1540 1542 1544 1546 1548 1550 1552 1553 1554 1556 1557 1558 1559 1560 1560 1561 1561 1562 1562 1563 1563
1493 1495 1497 1500 1502 1504 1507 1509 1511 1513 1514 1516 1517 1519 1521 1523 1525 1527 1529 1531 1534 1536 1538 1540 1542 1544 1546 1548 1550 1551 1553 1554 1555 1556 1557 1558 1559 1559 1560 1561 1561 1562 1562
1489 1492 1494 1496 1498 1501 1503 1505 1508 1509 1511 1513 1514 1516 1518 1520 1522 1524 1526 1528 1531 1533 1535 1537 1540 1542 1544 1546 1548 1550 1551 1552 1553 1554 1555 1556 1557 1558 1558 1559 1559 1560 1560
1485 1487 1490 1492 1495 1497 1499 1501 1503 1506 1508 1509 1511 1513 1515 1517 1519 1521 1523 1525 1527 1530 1532 1534 1536 1539 1541 1544 1546 1547 1549 1550 1550 1551 1552 1553 1554 1555 1556 1557 1557 1558 1558
1480 1483 1486 1488 1491 1493 1496 1498 1501 1503 1505 1506 1508 1510 1512 1514 1516 1518 1520 1522 1524 1526 1529 1531 1533 1535 1538 1541 1543 1545 1547 1549 1548 1549 1550 1551 1552 1553 1554 1555 1555 1556 1556
1476 1478 1481 1484 1487 1490 1493 1495 1497 1499 1501 1503 1504 1506 1508 1510 1512 1514 1516 1519 1521 1523 1525 1527 1530 1532 1534 1537 1539 1542 1543 1544 1545 1546 1547 1548 1549 1550 1551 1552 1552 1553 1554
1472 1475 1477 1480 1483 1486 1489 1491 1493 1495 1496 1499 1501 1503 1505 1507 1509 1511 1513 1515 1517 1520 1522 1524 1526 1529 1531 1533 1535 1537 1539 1540 1542 1543 1544 1545 1546 1547 1548 1549 1550 1550 1551
1469 1471 1474 1477 1480 1482 1485 1487 1490 1492 1494 1496 1498 1500 1502 1504 1506 1508 1510 1512 1514 1516 1518 1521 1523 1525 1527 1530 1531 1533 1535 1537 1538 1540 1541 1542 1543 1544 1545 1546 1546 1547 1548
1465 1467 1470 1473 1475 1478 1481 1483 1485 1488 1490 1493 1495 1496 1499 1500 1502 1504 1506 1509 1511 1513 1515 1517 1519 1521 1523 1526 1528 1530 1532 1533 1535 1536 1537 1538 1539 1540 1541 1542 1543 1544 1545